Weather History for Russell, KS

Change the Weather History Date:

Monday, October 24, 2011

  Actual Average Record
Temperature  
Mean Temperature 64 °F -  
Max Temperature 86 °F 63 °F 86 °F (2011)
Min Temperature 42 °F 40 °F 23 °F (2005)
Degree Days  
Heating Degree Days 1    
Growing Degree Days 14 (Base 50)    
Moisture  
Dew Point 38 °F    
Average Humidity 43    
Maximum Humidity 79    
Minimum Humidity 20    
Precipitation  
Precipitation 0.00 in - - ()
Sea Level Pressure  
Sea Level Pressure 29.96 in    
Wind  
Wind Speed 14 mph (SW)    
Max Wind Speed 30 mph    
Max Gust Speed 38 mph    
Visibility 10 miles    
Events      
Averages and records for this station are not official NWS values.
T = Trace of Precipitation, MM = Missing Value Source: NWS Daily Summary

Daily Weather History Graph

Daily Weather History Graph

Search for Another Location

Airport:

Trip Planner

Search our weather history database for the weather conditions in past years. The results will help you decide how hot, cold, wet, or windy it might be!

Date:

Astronomy

Oct. 24, 2011 Rise Set
Actual Time 7:53 AM CDT 6:44 PM CDT
Civil Twilight 7:26 AM CDT 7:11 PM CDT
Nautical Twilight 6:55 AM CDT 7:43 PM CDT
Astronomical Twilight 6:24 AM CDT 8:13 PM CDT
Moon 5:15 AM CDT (10/24) 5:09 PM CDT (10/24)
Length of Visible Light 11h 45m
Length of Day
10h 51m
Waning Crescent, 7% of the Moon is Illuminated
Oct 24
Waning Crescent
Oct 26
New
Nov 2
First Quarter
Nov 10
Full
Nov 18
Last Quarter

Hourly Weather History & Observations

Time (CDT) Temp. Windchill Dew Point Humidity Pressure Visibility Wind Dir Wind Speed Gust Speed Precip Events Conditions
12:53 AM 50.0 °F - 36.0 °F 59% 30.06 in 10.0 mi WSW 9.2 mph - N/A   Clear
1:53 AM 48.0 °F - 36.0 °F 63% 30.06 in 10.0 mi WSW 8.1 mph - N/A   Clear
2:53 AM 46.0 °F 40.2 °F 36.0 °F 68% 30.06 in 10.0 mi WSW 12.7 mph - N/A   Clear
3:53 AM 44.1 °F 37.4 °F 36.0 °F 73% 30.05 in 10.0 mi WSW 13.8 mph - N/A   Clear
4:53 AM 42.1 °F 37.1 °F 36.0 °F 79% 30.05 in 10.0 mi SW 8.1 mph - N/A   Clear
5:53 AM 46.9 °F - 36.0 °F 66% 30.07 in 10.0 mi SW 20.7 mph 33.4 mph N/A   Clear
6:00 AM 48.2 °F - 35.6 °F 62% 30.07 in 10.0 mi SW 11.5 mph 33.4 mph N/A   Squalls
6:12 AM 48.2 °F - 37.4 °F 66% 30.09 in 10.0 mi WSW 13.8 mph - N/A   Clear
6:53 AM 46.0 °F 40.2 °F 36.0 °F 68% 30.08 in 10.0 mi SW 12.7 mph - N/A   Clear
7:53 AM 48.0 °F - 35.1 °F 61% 30.08 in 10.0 mi WSW 9.2 mph - N/A   Clear
8:53 AM 51.1 °F - 37.9 °F 61% 30.07 in 10.0 mi WSW 5.8 mph - N/A   Clear
9:53 AM 59.0 °F - 39.0 °F 48% 30.06 in 10.0 mi SW 8.1 mph - N/A   Clear
10:53 AM 71.1 °F - 37.0 °F 29% 30.03 in 10.0 mi South 17.3 mph - N/A   Clear
11:53 AM 77.0 °F - 39.0 °F 25% 30.00 in 10.0 mi SSW 19.6 mph 27.6 mph N/A   Clear
12:53 PM 81.0 °F - 41.0 °F 24% 29.97 in 10.0 mi SSW 20.7 mph - N/A   Clear
1:53 PM 84.0 °F - 42.1 °F 23% 29.92 in 10.0 mi SSW 21.9 mph 33.4 mph N/A   Clear
2:53 PM 86.0 °F - 41.0 °F 20% 29.87 in 10.0 mi SSW 25.3 mph 33.4 mph N/A   Clear
3:53 PM 84.9 °F - 39.9 °F 20% 29.86 in 10.0 mi SSW 29.9 mph 38.0 mph N/A   Clear
4:53 PM 84.9 °F - 39.9 °F 20% 29.84 in 10.0 mi SSW 25.3 mph 31.1 mph N/A   Clear
5:53 PM 82.9 °F - 37.9 °F 20% 29.82 in 10.0 mi SSW 24.2 mph 35.7 mph N/A   Clear
6:53 PM 78.1 °F - 35.1 °F 21% 29.82 in 10.0 mi SSW 18.4 mph - N/A   Clear
7:53 PM 75.0 °F - 34.0 °F 22% 29.81 in 10.0 mi South 19.6 mph 33.4 mph N/A   Clear
8:53 PM 73.4 °F - 35.6 °F 25% 29.83 in 10.0 mi South 18.4 mph 31.1 mph N/A   Clear
9:53 PM 70.0 °F - 39.0 °F 32% 29.79 in 10.0 mi South 18.4 mph 29.9 mph N/A   Clear
10:53 PM 71.6 °F - 39.2 °F 31% 29.81 in 10.0 mi South 28.8 mph 38.0 mph N/A   Clear
11:53 PM 68.0 °F - 41.0 °F 37% 29.75 in 10.0 mi SSW 20.7 mph 34.5 mph N/A   Clear